Time,TemperatureF,DewpointF,PressureIn,WindDirection,WindDirectionDegrees,WindSpeedMPH,WindSpeedGustMPH,Humidity,HourlyPrecipIn,Conditions,Clouds,dailyrainin,SoftwareType,DateUTC
2013-07-16 02:00:00,80.0,76.0,-100.00,NNE,14,0.0,9.0,87,0.00,,,-99.99,,2013-07-16 06:00:00,
2013-07-16 02:43:00,80.0,76.0,-100.00,NNE,14,0.0,9.0,87,0.00,,,-99.99,,2013-07-16 06:43:00,
2013-07-16 02:52:00,80.0,76.0,-100.00,NNE,14,0.0,9.0,87,0.00,,,-99.99,,2013-07-16 06:52:00,
2013-07-16 13:00:00,91.0,71.0,-100.00,NNW,347,5.0,11.0,53,0.00,,,-99.99,,2013-07-16 17:00:00,
2013-07-16 13:43:00,91.0,71.0,-100.00,NNW,347,5.0,11.0,53,0.00,,,-99.99,,2013-07-16 17:43:00,
2013-07-16 13:53:00,91.0,71.0,-100.00,NNW,347,5.0,11.0,53,0.00,,,-99.99,,2013-07-16 17:53:00,
2013-07-16 14:00:00,92.0,71.0,-100.00,NNW,329,2.0,12.0,50,0.00,,,-99.99,,2013-07-16 18:00:00,
2013-07-16 14:43:00,92.0,71.0,-100.00,NNW,329,2.0,12.0,50,0.00,,,-99.99,,2013-07-16 18:43:00,
2013-07-16 14:53:00,92.0,71.0,-100.00,NNW,329,2.0,12.0,50,0.00,,,-99.99,,2013-07-16 18:53:00,
2013-07-16 15:00:00,94.0,70.0,-100.00,NNW,344,3.0,11.0,46,0.00,,,-99.99,,2013-07-16 19:00:00,
2013-07-16 15:43:00,94.0,70.0,-100.00,NNW,344,3.0,11.0,46,0.00,,,-99.99,,2013-07-16 19:43:00,
2013-07-16 15:52:00,94.0,70.0,-100.00,NNW,344,3.0,11.0,46,0.00,,,-99.99,,2013-07-16 19:52:00,
2013-07-16 16:00:00,90.0,73.0,-100.00,ESE,116,5.0,8.0,57,0.00,,,-99.99,,2013-07-16 20:00:00,
2013-07-16 16:32:00,90.0,73.0,-100.00,ESE,116,5.0,8.0,57,0.00,,,-99.99,,2013-07-16 20:32:00,
2013-07-16 16:43:00,90.0,73.0,-100.00,ESE,116,5.0,8.0,57,0.00,,,-99.99,,2013-07-16 20:43:00,
2013-07-16 16:52:00,90.0,73.0,-100.00,ESE,116,5.0,8.0,57,0.00,,,-99.99,,2013-07-16 20:52:00,
2013-07-16 17:00:00,88.0,70.0,-100.00,SE,133,5.0,11.0,54,0.00,,,-99.99,,2013-07-16 21:00:00,
2013-07-16 17:43:00,88.0,70.0,-100.00,SE,133,5.0,11.0,54,0.00,,,-99.99,,2013-07-16 21:43:00,
2013-07-16 17:52:00,88.0,70.0,-100.00,SE,133,5.0,11.0,54,0.00,,,-99.99,,2013-07-16 21:52:00,
2013-07-16 19:00:00,86.0,68.0,-100.00,South,176,3.0,9.0,55,0.00,,,-99.99,,2013-07-16 23:00:00,
2013-07-16 19:32:00,86.0,68.0,-100.00,South,176,3.0,9.0,55,0.00,,,-99.99,,2013-07-16 23:32:00,
2013-07-16 19:43:00,86.0,68.0,-100.00,South,176,3.0,9.0,55,0.00,,,-99.99,,2013-07-16 23:43:00,
2013-07-16 19:52:00,86.0,68.0,-100.00,South,176,3.0,9.0,55,0.00,,,-99.99,,2013-07-16 23:52:00,
2013-07-16 20:00:00,83.0,72.0,-100.00,SSW,205,0.0,5.0,71,0.00,,,-99.99,,2013-07-17 00:00:00,
2013-07-16 20:33:00,83.0,72.0,-100.00,SSW,205,0.0,5.0,71,0.00,,,-99.99,,2013-07-17 00:33:00,
2013-07-16 20:42:00,83.0,72.0,-100.00,SSW,205,0.0,5.0,71,0.00,,,-99.99,,2013-07-17 00:42:00,
2013-07-16 20:52:00,83.0,72.0,-100.00,SSW,205,0.0,5.0,71,0.00,,,-99.99,,2013-07-17 00:52:00,
2013-07-16 21:00:00,78.0,73.0,-100.00,NE,42,0.0,2.0,85,0.00,,,-99.99,,2013-07-17 01:00:00,
2013-07-16 21:32:00,78.0,73.0,-100.00,NE,42,0.0,2.0,85,0.00,,,-99.99,,2013-07-17 01:32:00,
2013-07-16 21:43:00,78.0,73.0,-100.00,NE,42,0.0,2.0,85,0.00,,,-99.99,,2013-07-17 01:43:00,
2013-07-16 21:53:00,78.0,73.0,-100.00,NE,42,0.0,2.0,85,0.00,,,-99.99,,2013-07-17 01:53:00,
2013-07-16 22:00:00,75.0,72.0,-100.00,North,0,0.0,0.0,91,0.00,,,-99.99,,2013-07-17 02:00:00,
2013-07-16 22:32:00,75.0,72.0,-100.00,North,0,0.0,0.0,91,0.00,,,-99.99,,2013-07-17 02:32:00,
2013-07-16 22:43:00,75.0,72.0,-100.00,North,0,0.0,0.0,91,0.00,,,-99.99,,2013-07-17 02:43:00,
2013-07-16 22:53:00,75.0,72.0,-100.00,North,0,0.0,0.0,91,0.00,,,-99.99,,2013-07-17 02:53:00,